User: anonymous
Location: Irma
(52.9170°N, 111.2330°W)
Time: 08:31:48
(UTC-06:00)
Language:

deb Chang Zheng 4 - Orbit

View from above orbital plane
View from above orbital plane
View from above satellite
View from above satellite

Ground track
Ground track

The orbit data is extracted from the following two-line orbital elements,

1 20847U 90081K   14109.16283285  .00022753  00000-0  41980-2 0   476
2 20847 098.5644 270.5558 0024668 122.4697 292.5000 14.65276917235554
Epoch (UTC): 19 April 2014 03:54:28
Eccentricity: 0.0024668
inclination: 98.5644°
perigee height: 659 km
apogee height: 693 km
right ascension of ascending node: 270.5558°
argument of perigee: 122.4697°
revolutions per day: 14.65276917
mean anomaly at epoch: 292.5000°
orbit number at epoch: 23555

The dashed part of the orbit path shows where the satellite is in the earth's shadow,  

DLR